Location: Ayer Observatory
(42.2600°N, 71.0700°W)
Time: 15:44:51
(UTC-04:00)

XW-2A - Pass Details

Date: 22 July 2019
Orbit: 432 x 448 km, 97.3° (Epoch: 25 August)

Event Time Altitude Azimuth Distance (km) Brightness Sun altitude
Rises 20:46:44 0° 172° (S) 2,392 ? -6.0°
Reaches altitude 10° 20:48:45 10° 175° (S) 1,530 ? -6.3°
Maximum altitude 20:52:00 67° 259° (W) 473 ? -6.8°
Drops below altitude 10° 20:55:18 10° 343° (NNW) 1,547 ? -7.3°
Sets 20:57:20 0° 346° (NNW) 2,423 ? -7.6°
